Total_Precipitation_Accumulation
0.26 0.24 0.29 0.37 0.39 0.47 0.62 0.80 1.03 0.92 0.71 0.59 0.57 0.53 0.55 0.61 0.54 0.49 0.46 0.45 0.44 0.41 0.41 0.42 0.44 0.52 0.58 0.70 0.86 0.97 1.02 0.99 0.91 0.84 0.74 0.67 0.60 0.53 0.54 0.50 0.50 0.56 0.73 0.90
0.13 0.14 0.19 0.31 0.44 0.57 0.63 0.70 0.72 0.63 0.59 0.45 0.40 0.36 0.37 0.43 0.42 0.41 0.36 0.31 0.29 0.30 0.29 0.32 0.37 0.44 0.43 0.53 0.68 0.78 0.83 0.85 0.87 0.83 0.66 0.58 0.51 0.45 0.43 0.43 0.45 0.48 0.57 0.73
0.13 0.12 0.21 0.43 0.55 0.61 0.61 0.56 0.48 0.45 0.41 0.30 0.26 0.21 0.21 0.27 0.30 0.34 0.33 0.27 0.24 0.23 0.24 0.29 0.38 0.40 0.40 0.48 0.59 0.62 0.65 0.68 0.71 0.68 0.54 0.48 0.38 0.34 0.37 0.38 0.42 0.45 0.51 0.64
0.19 0.17 0.39 0.63 0.53 0.47 0.51 0.40 0.26 0.23 0.24 0.23 0.18 0.14 0.12 0.13 0.15 0.16 0.20 0.20 0.24 0.21 0.19 0.22 0.29 0.36 0.44 0.46 0.47 0.47 0.50 0.53 0.52 0.52 0.47 0.40 0.32 0.31 0.33 0.36 0.42 0.44 0.47 0.52
0.29 0.29 0.46 0.58 0.38 0.35 0.41 0.38 0.20 0.14 0.14 0.12 0.11 0.09 0.06 0.06 0.09 0.10 0.09 0.10 0.13 0.13 0.13 0.14 0.15 0.16 0.19 0.22 0.25 0.28 0.36 0.41 0.45 0.44 0.40 0.35 0.30 0.36 0.42 0.43 0.43 0.42 0.42 0.44
0.37 0.44 0.56 0.41 0.16 0.16 0.29 0.43 0.17 0.09 0.08 0.07 0.07 0.08 0.06 0.06 0.08 0.07 0.05 0.04 0.06 0.09 0.08 0.08 0.08 0.07 0.06 0.08 0.12 0.17 0.24 0.29 0.34 0.38 0.39 0.41 0.49 0.57 0.58 0.54 0.49 0.44 0.40 0.39
0.44 0.63 0.63 0.36 0.15 0.16 0.30 0.43 0.22 0.09 0.05 0.05 0.04 0.04 0.03 0.05 0.06 0.05 0.04 0.03 0.04 0.06 0.07 0.07 0.07 0.05 0.05 0.05 0.04 0.05 0.08 0.13 0.23 0.35 0.41 0.49 0.59 0.62 0.62 0.56 0.46 0.41 0.39 0.37
0.55 0.72 0.79 0.40 0.21 0.24 0.22 0.15 0.12 0.06 0.04 0.04 0.03 0.03 0.04 0.04 0.04 0.04 0.04 0.03 0.04 0.04 0.05 0.07 0.08 0.07 0.07 0.11 0.07 0.04 0.06 0.12 0.18 0.26 0.35 0.48 0.56 0.54 0.54 0.54 0.49 0.44 0.45 0.42
0.55 0.60 0.51 0.31 0.20 0.14 0.10 0.10 0.05 0.03 0.02 0.02 0.02 0.03 0.04 0.06 0.05 0.04 0.04 0.04 0.05 0.05 0.06 0.07 0.07 0.08 0.07 0.07 0.08 0.06 0.07 0.08 0.10 0.16 0.28 0.42 0.45 0.44 0.46 0.49 0.48 0.45 0.42 0.40
0.22 0.17 0.16 0.14 0.11 0.06 0.04 0.04 0.02 0.01 0.01 0.01 0.02 0.03 0.04 0.05 0.05 0.05 0.05 0.05 0.04 0.04 0.05 0.05 0.06 0.06 0.07 0.07 0.07 0.06 0.06 0.06 0.06 0.07 0.10 0.15 0.20 0.25 0.31 0.35 0.36 0.35 0.37 0.40
0.22 0.11 0.07 0.06 0.05 0.03 0.02 0.02 0.01 0.00 0.01 0.01 0.02 0.02 0.03 0.05 0.05 0.05 0.06 0.05 0.04 0.04 0.05 0.05 0.04 0.04 0.05 0.06 0.07 0.07 0.06 0.05 0.05 0.08 0.11 0.11 0.12 0.15 0.18 0.20 0.23 0.28 0.33 0.36
0.21 0.13 0.07 0.04 0.03 0.03 0.02 0.01 0.01 0.01 0.00 0.00 0.01 0.02 0.02 0.03 0.04 0.04 0.05 0.05 0.05 0.05 0.06 0.05 0.05 0.05 0.05 0.04 0.05 0.07 0.08 0.06 0.05 0.05 0.07 0.08 0.09 0.10 0.10 0.11 0.13 0.15 0.18 0.20
0.09 0.09 0.06 0.06 0.06 0.03 0.02 0.01 0.01 0.01 0.01 0.00 0.00 0.01 0.02 0.02 0.03 0.03 0.04 0.04 0.04 0.05 0.05 0.05 0.06 0.05 0.05 0.05 0.06 0.07 0.08 0.08 0.06 0.05 0.06 0.08 0.09 0.11 0.10 0.08 0.06 0.05 0.07 0.11
0.04 0.06 0.07 0.05 0.03 0.02 0.01 0.01 0.01 0.01 0.00 0.00 0.00 0.01 0.01 0.02 0.03 0.03 0.03 0.03 0.04 0.04 0.04 0.04 0.03 0.04 0.06 0.06 0.07 0.07 0.08 0.10 0.10 0.11 0.12 0.10 0.10 0.14 0.17 0.18 0.14 0.07 0.05 0.06
0.04 0.05 0.06 0.04 0.02 0.01 0.00 0.00 0.01 0.01 0.01 0.00 0.00 0.01 0.01 0.01 0.02 0.03 0.03 0.03 0.03 0.03 0.04 0.03 0.03 0.04 0.05 0.06 0.07 0.08 0.08 0.08 0.10 0.15 0.14 0.14 0.17 0.19 0.18 0.17 0.16 0.11 0.08 0.05
0.04 0.03 0.03 0.03 0.01 0.01 0.01 0.01 0.01 0.01 0.01 0.01 0.01 0.01 0.01 0.02 0.02 0.03 0.03 0.04 0.04 0.03 0.03 0.04 0.04 0.05 0.06 0.06 0.07 0.07 0.08 0.08 0.08 0.10 0.12 0.15 0.16 0.17 0.15 0.13 0.11 0.09 0.08 0.07
0.02 0.02 0.02 0.02 0.01 0.01 0.01 0.01 0.01 0.02 0.02 0.02 0.02 0.02 0.01 0.01 0.02 0.02 0.03 0.03 0.04 0.03 0.02 0.03 0.05 0.06 0.06 0.06 0.05 0.06 0.08 0.08 0.08 0.08 0.09 0.10 0.10 0.11 0.12 0.11 0.10 0.07 0.06 0.05
0.02 0.02 0.02 0.02 0.01 0.01 0.01 0.01 0.01 0.01 0.02 0.03 0.03 0.03 0.02 0.02 0.02 0.03 0.03 0.03 0.03 0.02 0.02 0.02 0.03 0.05 0.05 0.05 0.05 0.05 0.07 0.08 0.07 0.07 0.09 0.09 0.09 0.10 0.12 0.13 0.13 0.11 0.09 0.08
0.03 0.03 0.02 0.02 0.01 0.01 0.02 0.02 0.01 0.01 0.02 0.03 0.03 0.03 0.03 0.04 0.04 0.03 0.04 0.04 0.02 0.02 0.02 0.02 0.02 0.03 0.04 0.05 0.05 0.05 0.06 0.07 0.07 0.08 0.09 0.08 0.09 0.10 0.11 0.11 0.12 0.13 0.15 0.15
0.05 0.05 0.04 0.03 0.03 0.03 0.02 0.02 0.02 0.02 0.02 0.02 0.03 0.04 0.04 0.03 0.03 0.03 0.03 0.03 0.03 0.03 0.03 0.03 0.03 0.02 0.04 0.06 0.07 0.06 0.06 0.07 0.08 0.10 0.10 0.11 0.12 0.12 0.11 0.11 0.12 0.13 0.14 0.16
0.08 0.08 0.06 0.05 0.05 0.05 0.04 0.04 0.04 0.03 0.03 0.03 0.04 0.04 0.04 0.03 0.02 0.02 0.03 0.03 0.03 0.04 0.04 0.04 0.04 0.04 0.05 0.08 0.09 0.07 0.06 0.07 0.08 0.10 0.11 0.13 0.15 0.15 0.16 0.15 0.14 0.15 0.15 0.16
0.10 0.10 0.08 0.07 0.06 0.06 0.06 0.06 0.06 0.05 0.05 0.05 0.05 0.05 0.04 0.04 0.04 0.04 0.04 0.05 0.05 0.06 0.06 0.07 0.07 0.08 0.09 0.11 0.09 0.09 0.10 0.09 0.10 0.11 0.13 0.14 0.17 0.20 0.20 0.19 0.18 0.17 0.17 0.19
0.09 0.09 0.09 0.08 0.08 0.07 0.07 0.08 0.08 0.08 0.07 0.07 0.07 0.07 0.07 0.07 0.08 0.09 0.09 0.09 0.10 0.11 0.10 0.10 0.11 0.12 0.13 0.12 0.11 0.11 0.11 0.13 0.14 0.15 0.17 0.17 0.18 0.22 0.25 0.25 0.24 0.22 0.22 0.24
0.11 0.10 0.09 0.10 0.09 0.10 0.11 0.12 0.11 0.11 0.11 0.11 0.11 0.11 0.11 0.12 0.13 0.13 0.14 0.15 0.14 0.13 0.11 0.12 0.13 0.13 0.13 0.11 0.13 0.15 0.15 0.16 0.18 0.19 0.22 0.24 0.23 0.25 0.28 0.29 0.30 0.30 0.30 0.30
0.14 0.12 0.12 0.15 0.16 0.16 0.17 0.15 0.13 0.11 0.11 0.11 0.10 0.11 0.11 0.13 0.14 0.15 0.16 0.16 0.16 0.15 0.14 0.15 0.16 0.17 0.15 0.14 0.17 0.19 0.21 0.21 0.23 0.24 0.24 0.26 0.27 0.28 0.29 0.31 0.33 0.35 0.35 0.35
0.11 0.11 0.12 0.15 0.17 0.16 0.14 0.12 0.12 0.12 0.11 0.11 0.11 0.12 0.12 0.13 0.14 0.16 0.16 0.16 0.16 0.16 0.15 0.14 0.14 0.15 0.15 0.17 0.19 0.20 0.22 0.24 0.24 0.24 0.26 0.29 0.31 0.32 0.33 0.35 0.35 0.38 0.40 0.40
0.11 0.11 0.11 0.14 0.16 0.14 0.11 0.10 0.11 0.13 0.14 0.16 0.18 0.18 0.17 0.18 0.18 0.18 0.17 0.17 0.17 0.16 0.17 0.17 0.17 0.17 0.19 0.21 0.22 0.22 0.23 0.25 0.25 0.27 0.29 0.32 0.36 0.38 0.39 0.39 0.40 0.42 0.46 0.48